Wind_Speed
4 2 17 28 32 35 37 33 19 23 28 24 22 18 15 13 12 12 13 15 17 20 22 22 23 24 25 27 28 28 30 31 34 36 40 43 45 48 50 52 55 59 64 68
11 12 17 24 31 35 25 14 19 31 34 26 20 16 12 9 9 9 10 11 14 17 19 20 21 23 25 26 27 28 31 33 36 39 42 44 46 48 51 54 59 64 69 69
13 9 17 16 19 20 10 19 32 28 17 15 17 15 14 13 11 10 9 10 13 15 16 18 21 23 25 25 27 30 33 36 39 42 44 46 47 49 53 58 63 68 68 64
20 17 20 19 18 20 23 23 20 14 15 18 18 15 14 15 15 14 14 15 17 17 18 20 22 23 24 26 29 32 35 39 42 44 46 46 48 52 57 62 66 66 63 64
16 17 18 17 18 21 22 20 21 21 21 19 16 15 14 16 16 15 14 14 16 18 19 21 22 23 25 28 31 35 38 41 43 43 44 47 51 56 60 64 63 61 62 66
8 12 14 13 14 17 18 18 16 15 16 15 16 17 18 18 14 12 14 16 18 19 20 21 23 25 28 31 33 36 37 38 40 43 46 50 55 59 61 59 58 60 65 71
4 5 7 10 11 13 16 15 16 17 17 17 18 19 19 17 15 16 18 18 18 18 20 22 25 27 30 32 34 36 38 40 43 46 50 53 56 58 56 56 59 64 68 73
5 4 6 7 9 11 12 13 15 17 18 19 18 17 17 17 17 17 17 16 17 19 21 24 27 30 32 34 36 38 41 43 46 49 52 54 53 53 55 58 62 66 70 76
11 11 9 8 9 12 14 13 14 16 17 18 18 18 17 16 15 16 16 18 20 23 26 27 29 31 33 36 38 41 43 45 47 50 51 50 51 53 57 60 64 69 74 81
15 13 10 10 8 9 11 13 13 15 16 18 17 16 14 13 14 16 19 21 22 24 26 28 31 33 36 38 39 41 43 46 48 47 48 50 52 55 59 63 69 75 81 87
16 14 13 12 10 11 9 10 14 13 14 16 16 14 13 13 14 15 17 19 22 25 28 30 32 34 35 36 38 42 44 45 45 46 48 50 54 57 63 69 75 81 87 92
19 18 16 12 13 14 13 13 14 13 11 11 11 12 11 12 14 16 18 21 24 27 29 31 32 33 35 38 40 41 42 44 46 47 49 52 56 63 70 76 82 87 92 95
23 24 23 19 18 16 15 16 16 14 11 8 9 11 12 14 17 18 21 25 27 29 29 30 32 34 37 38 39 41 43 45 46 48 52 56 61 67 74 80 85 90 93 97
18 21 25 23 20 17 15 13 13 11 9 9 11 13 15 17 19 22 25 27 28 28 29 31 34 35 37 38 40 43 44 45 48 52 56 61 67 73 78 83 87 92 95 96
16 17 18 19 20 18 14 12 10 10 11 12 15 17 18 20 23 26 27 28 28 30 32 33 34 36 38 40 42 43 45 48 52 56 60 66 72 77 82 86 90 94 94 86
17 17 16 16 17 17 14 13 13 14 15 16 19 22 24 26 27 28 28 29 30 31 33 34 36 38 40 41 43 45 47 51 55 60 66 71 77 81 85 88 92 92 84 72
14 15 15 15 15 15 16 16 17 19 21 23 24 26 27 28 28 28 29 30 30 32 34 36 38 39 41 42 44 47 50 54 60 66 70 75 80 83 87 91 92 83 71 61
14 14 15 16 18 19 20 21 23 24 25 25 26 27 26 26 26 27 28 30 32 34 35 37 38 40 41 43 45 49 54 61 66 70 74 78 82 85 89 90 82 69 60 53
18 18 19 21 21 22 22 23 24 24 25 25 24 24 24 25 26 28 29 31 33 34 35 37 38 39 42 45 49 54 60 64 69 72 76 81 84 88 89 82 69 60 54 47
24 24 24 24 23 23 22 22 22 22 22 23 23 24 25 26 27 29 30 31 33 34 36 36 38 41 45 49 54 59 63 67 71 75 79 82 86 88 82 70 61 56 47 37
25 25 25 24 24 24 23 22 22 22 22 23 24 25 26 27 28 29 31 32 33 34 36 38 41 44 49 54 58 62 66 69 73 77 81 84 87 82 69 61 56 48 36 26
24 24 24 25 25 24 23 22 22 23 23 24 25 26 26 28 29 30 31 32 33 35 37 41 45 50 54 58 62 65 69 73 76 80 84 86 81 67 60 55 49 39 27 17
23 23 24 23 23 23 23 23 23 24 25 25 26 27 29 29 29 30 31 32 35 38 41 46 50 54 58 62 65 69 73 76 79 84 86 81 67 59 54 47 40 30 19 5
23 24 24 24 24 24 24 24 24 25 25 26 27 27 27 27 28 29 32 35 39 43 47 51 54 58 62 66 69 72 76 79 84 86 80 67 60 55 47 38 31 21 6 7
23 23 23 24 24 24 24 24 24 25 25 25 25 25 25 27 30 33 36 40 45 48 51 55 59 62 65 68 71 74 79 84 85 77 66 61 56 48 39 29 22 9 8 16
23 23 23 23 23 22 22 22 22 21 22 24 25 26 28 31 34 39 43 46 49 52 55 58 61 64 66 69 73 78 84 84 76 66 62 56 47 40 31 21 9 8 19 23
22 21 20 20 19 19 20 20 21 22 24 26 28 30 33 37 40 43 46 49 52 55 58 60 63 65 68 72 78 83 83 74 65 61 55 47 39 30 18 5 8 21 27 27
Wind_Direction
164 206 202 182 185 190 196 199 181 136 156 168 160 177 179 185 194 202 210 218 226 233 239 245 252 257 261 266 271 275 278 281 285 288 290 292 292 292 294 297 300 303 305 307
159 150 167 188 199 194 195 179 162 158 159 157 162 172 176 187 198 207 215 223 232 239 244 249 255 261 266 270 274 277 281 284 288 290 291 291 292 295 298 300 302 304 306 308
120 141 159 152 169 178 161 142 142 146 149 164 190 198 210 225 230 228 231 241 250 257 261 263 265 268 270 273 276 281 286 289 290 289 290 291 294 297 300 302 304 306 308 308
99 106 130 128 128 131 134 143 144 156 187 202 206 207 218 232 241 246 251 253 257 258 259 261 263 267 272 277 283 287 288 288 288 289 291 293 297 301 303 305 307 308 308 308
106 111 122 131 144 160 167 173 174 187 199 208 214 220 225 230 233 235 242 247 252 257 262 265 269 275 280 284 286 286 287 289 292 294 297 299 301 303 305 306 307 308 309 311
121 128 140 148 162 175 182 194 201 213 223 229 231 238 239 243 249 250 253 257 261 266 269 273 276 280 282 284 286 288 290 292 294 296 298 300 302 304 305 307 308 310 311 312
182 165 171 179 187 199 206 211 217 226 234 241 245 244 247 254 262 261 260 262 267 271 274 277 279 280 281 284 286 288 289 291 294 297 300 302 304 305 307 308 310 312 313 314
202 193 197 204 214 219 223 227 228 231 232 234 240 244 248 255 260 262 266 269 272 276 279 282 282 283 284 287 288 290 292 295 298 300 302 303 305 307 309 311 313 314 315 317
203 199 205 220 226 228 230 230 229 229 230 232 234 238 245 252 259 264 268 272 276 281 285 286 286 287 288 290 291 294 296 298 300 301 303 305 307 310 312 313 314 315 316 317
195 194 205 218 217 223 225 231 236 240 237 234 233 234 237 246 258 267 274 278 281 284 286 287 288 289 291 294 295 296 297 299 301 303 305 308 310 312 314 315 316 317 318 319
204 212 214 216 217 215 228 234 237 243 239 234 230 229 239 254 263 270 274 279 283 285 287 288 290 293 295 296 296 298 300 302 304 306 309 311 313 315 317 318 319 319 320 320
214 223 225 227 232 237 241 238 238 233 239 238 227 227 234 248 262 272 280 286 288 288 289 291 294 295 297 298 300 302 304 306 307 309 311 313 315 317 319 320 320 320 321 322
234 232 231 235 241 244 237 228 231 234 236 216 216 231 245 259 269 278 287 292 291 291 292 294 296 297 299 302 304 306 307 309 310 312 313 315 316 318 319 319 320 321 323 324
234 224 223 232 238 234 232 229 219 209 212 232 248 258 266 271 279 287 292 293 293 293 294 297 299 301 304 306 308 309 310 311 313 314 315 315 317 318 319 319 321 323 324 325
209 208 216 227 232 231 212 197 202 226 249 263 272 276 279 282 287 290 292 293 293 294 296 298 301 305 308 309 310 312 312 313 314 314 315 317 318 319 320 321 323 324 325 325
202 210 217 216 209 197 198 217 235 248 261 272 278 282 284 287 289 291 292 292 293 295 298 302 306 309 310 312 313 314 314 314 314 315 317 319 319 320 322 323 325 326 325 324
200 208 210 209 212 221 233 244 257 268 273 275 276 279 282 285 287 288 288 291 294 297 301 305 307 310 313 314 315 314 313 314 316 318 318 319 320 322 323 325 326 326 325 325
204 211 220 227 235 245 252 258 262 266 270 273 277 280 283 284 285 286 289 293 296 300 303 307 310 312 313 313 313 313 314 316 317 318 318 320 321 323 324 326 326 326 326 326
222 229 236 242 246 250 255 260 264 268 271 275 279 282 284 285 286 289 293 296 300 304 307 310 311 311 312 313 314 315 316 317 318 319 320 321 322 324 326 327 326 326 326 325
240 245 247 248 251 255 258 262 265 269 274 279 281 283 284 286 288 292 296 299 303 306 307 308 310 311 313 314 315 316 317 318 319 320 321 322 323 325 326 326 326 326 326 325
240 243 247 252 256 258 261 264 268 273 277 279 281 283 285 288 291 295 298 301 303 305 306 308 311 312 314 315 317 318 319 320 320 321 322 323 325 326 326 326 327 328 327 326
246 247 249 252 255 257 261 264 269 274 277 279 282 284 287 290 293 296 300 302 305 306 308 309 311 313 316 318 319 320 321 321 321 321 323 324 325 326 326 327 328 328 325 324
251 250 249 250 252 256 261 266 270 273 277 280 282 285 288 291 295 299 302 304 305 307 309 312 314 316 319 320 321 322 322 321 321 322 323 324 325 325 325 326 326 325 320 316
251 251 250 252 255 259 263 267 271 274 277 280 283 286 290 295 299 301 303 305 308 310 312 315 317 320 321 322 322 321 321 321 322 323 324 324 325 325 324 324 323 321 307 153
251 252 254 255 258 261 265 268 270 273 277 280 285 289 293 296 299 302 306 308 310 312 315 318 320 321 321 321 320 320 321 322 323 324 324 324 325 324 323 321 317 306 161 149
253 254 255 258 259 262 264 266 269 273 279 284 288 292 294 297 300 304 307 309 312 315 318 320 321 321 320 319 319 320 321 323 324 325 325 326 325 324 322 320 311 169 153 149
244 246 248 251 255 258 262 267 273 279 284 288 292 295 298 300 303 306 309 312 315 317 318 319 319 319 319 319 319 321 322 324 325 326 327 327 326 324 325 332 149 151 150 147
Height
5566 5567 5570 5574 5580 5586 5591 5597 5603 5610 5620 5630 5635 5648 5652 5656 5660 5664 5668 5671 5674 5678 5680 5681 5682 5682 5683 5683 5683 5682 5680 5679 5677 5674 5670 5665 5660 5656 5650 5644 5637 5630 5623 5613
5570 5571 5573 5577 5581 5586 5591 5595 5602 5611 5621 5628 5639 5648 5652 5655 5658 5661 5664 5667 5670 5673 5674 5675 5676 5676 5676 5676 5675 5674 5673 5671 5668 5664 5660 5656 5651 5645 5639 5632 5625 5617 5608 5597
5577 5576 5580 5583 5586 5591 5595 5599 5606 5617 5626 5635 5643 5646 5649 5652 5655 5659 5662 5665 5666 5667 5668 5668 5669 5669 5669 5668 5668 5667 5665 5663 5659 5655 5650 5645 5640 5634 5627 5620 5612 5602 5591 5581
5584 5585 5587 5592 5591 5595 5600 5606 5612 5619 5630 5637 5641 5643 5646 5649 5653 5656 5658 5659 5661 5662 5663 5663 5663 5663 5663 5662 5661 5659 5657 5653 5649 5644 5639 5634 5629 5623 5616 5607 5597 5587 5577 5567
5587 5589 5591 5595 5597 5601 5607 5610 5615 5623 5630 5634 5638 5641 5644 5647 5650 5652 5653 5655 5656 5656 5656 5657 5657 5657 5656 5655 5653 5651 5647 5643 5639 5634 5629 5624 5618 5611 5603 5593 5582 5573 5562 5552
5591 5592 5594 5599 5601 5605 5610 5613 5617 5621 5626 5630 5634 5637 5640 5643 5646 5647 5648 5649 5650 5650 5651 5651 5651 5650 5649 5647 5645 5641 5638 5634 5630 5625 5619 5612 5605 5597 5588 5579 5569 5560 5550 5539
5591 5594 5597 5600 5601 5605 5610 5613 5616 5619 5622 5626 5630 5634 5637 5639 5640 5641 5642 5643 5644 5645 5645 5645 5644 5642 5641 5639 5636 5633 5629 5625 5620 5614 5608 5601 5592 5583 5575 5566 5558 5549 5539 5526
5590 5593 5598 5599 5601 5604 5607 5610 5613 5616 5619 5622 5625 5628 5631 5633 5634 5635 5637 5638 5639 5638 5638 5637 5636 5635 5633 5630 5627 5623 5619 5614 5609 5602 5595 5587 5579 5570 5563 5555 5546 5535 5525 5512
5591 5595 5596 5597 5600 5602 5604 5606 5609 5612 5615 5618 5621 5623 5625 5627 5628 5630 5631 5631 5631 5630 5630 5629 5628 5626 5624 5621 5617 5613 5608 5603 5597 5590 5582 5575 5567 5560 5551 5542 5533 5522 5510 5497
5590 5593 5595 5596 5598 5600 5602 5604 5607 5609 5611 5613 5615 5617 5620 5622 5623 5624 5624 5624 5624 5623 5623 5622 5620 5617 5614 5611 5607 5602 5597 5591 5585 5578 5571 5564 5556 5548 5538 5528 5518 5506 5493 5479
5587 5589 5591 5593 5595 5598 5600 5602 5604 5606 5607 5608 5610 5613 5615 5617 5618 5619 5619 5619 5618 5617 5616 5613 5611 5608 5605 5601 5597 5592 5586 5580 5574 5567 5560 5552 5543 5534 5525 5513 5501 5488 5474 5459
5582 5586 5589 5592 5594 5596 5598 5600 5601 5602 5604 5605 5607 5609 5611 5612 5613 5613 5613 5613 5612 5610 5607 5605 5602 5599 5596 5591 5586 5581 5576 5570 5564 5557 5549 5541 5532 5521 5508 5497 5482 5467 5451 5435
5579 5581 5585 5588 5591 5593 5595 5596 5598 5600 5602 5603 5605 5606 5607 5607 5608 5608 5607 5606 5604 5601 5599 5596 5594 5590 5586 5581 5576 5571 5565 5559 5553 5546 5538 5529 5519 5509 5497 5482 5465 5448 5433 5416
5572 5575 5579 5583 5586 5589 5591 5593 5595 5597 5599 5601 5602 5602 5602 5602 5602 5601 5600 5597 5595 5593 5591 5588 5584 5580 5576 5571 5566 5560 5555 5548 5542 5534 5526 5516 5506 5495 5482 5468 5453 5435 5416 5399
5569 5572 5576 5579 5582 5584 5587 5590 5592 5595 5596 5597 5597 5597 5596 5596 5595 5594 5592 5590 5588 5585 5582 5578 5575 5570 5566 5561 5556 5550 5544 5538 5530 5522 5513 5503 5492 5479 5465 5450 5435 5418 5402 5385
5567 5570 5573 5576 5578 5582 5584 5587 5588 5590 5591 5591 5591 5590 5590 5589 5587 5586 5584 5581 5579 5576 5572 5569 5565 5561 5556 5551 5546 5540 5533 5526 5518 5509 5499 5488 5476 5462 5448 5432 5417 5401 5385 5373
5566 5569 5571 5574 5576 5579 5581 5582 5583 5584 5585 5585 5584 5583 5582 5580 5579 5577 5575 5573 5570 5567 5563 5560 5556 5552 5547 5541 5535 5529 5522 5514 5505 5496 5485 5473 5459 5445 5430 5415 5401 5385 5370 5359
5565 5567 5569 5571 5573 5574 5576 5577 5577 5578 5577 5577 5575 5575 5573 5572 5571 5569 5567 5565 5562 5558 5555 5551 5547 5542 5537 5531 5525 5518 5511 5502 5492 5481 5469 5456 5442 5428 5413 5399 5383 5370 5359 5347
5561 5563 5564 5566 5567 5568 5569 5569 5570 5570 5569 5569 5568 5567 5565 5564 5562 5561 5558 5556 5553 5550 5546 5542 5538 5533 5527 5521 5515 5507 5499 5489 5478 5466 5454 5441 5426 5411 5397 5383 5369 5358 5349 5340
5555 5556 5557 5559 5560 5561 5562 5562 5562 5562 5562 5561 5560 5559 5558 5556 5554 5552 5550 5547 5545 5541 5537 5533 5528 5522 5517 5510 5503 5495 5486 5475 5464 5451 5438 5424 5410 5397 5382 5368 5358 5348 5339 5332
5548 5549 5551 5553 5554 5555 5555 5555 5555 5554 5554 5554 5553 5551 5550 5549 5547 5545 5542 5540 5536 5532 5527 5522 5517 5512 5506 5499 5491 5482 5472 5460 5448 5435 5422 5409 5395 5381 5368 5357 5347 5338 5331 5326
5541 5542 5544 5546 5547 5547 5548 5548 5547 5547 5547 5547 5546 5545 5543 5542 5540 5537 5534 5531 5527 5523 5518 5514 5508 5502 5495 5486 5477 5467 5456 5444 5432 5420 5406 5393 5380 5367 5357 5347 5339 5331 5326 5323
5535 5536 5537 5538 5539 5540 5540 5541 5540 5540 5540 5540 5539 5538 5536 5534 5531 5529 5525 5522 5519 5515 5510 5505 5498 5491 5482 5473 5463 5452 5441 5429 5417 5404 5391 5377 5365 5356 5347 5338 5332 5325 5321 5320
5527 5529 5530 5531 5532 5533 5533 5533 5533 5533 5533 5532 5531 5529 5527 5525 5523 5520 5518 5514 5510 5506 5500 5494 5486 5478 5468 5459 5448 5438 5427 5415 5401 5388 5373 5362 5353 5343 5336 5330 5324 5320 5318 5319
5520 5522 5523 5524 5525 5525 5525 5525 5525 5525 5525 5524 5523 5521 5519 5517 5515 5512 5509 5505 5501 5495 5489 5481 5473 5464 5455 5445 5434 5423 5412 5399 5385 5371 5358 5349 5340 5331 5325 5321 5318 5316 5317 5319
5513 5514 5515 5516 5517 5517 5518 5518 5518 5518 5518 5516 5515 5513 5511 5509 5506 5503 5500 5495 5489 5483 5475 5468 5459 5450 5440 5430 5419 5408 5396 5383 5368 5356 5346 5336 5328 5321 5316 5313 5312 5314 5317 5321
5504 5505 5506 5508 5509 5510 5511 5511 5511 5510 5509 5508 5507 5505 5503 5500 5497 5493 5488 5483 5476 5469 5462 5454 5446 5437 5427 5417 5405 5393 5380 5367 5356 5346 5335 5326 5319 5313 5309 5309 5311 5315 5319 5324